Location: Unspecified
(0.0000°N, 0.0000°E)
Time: 19:48:52
(UTC+00:00)

Envisat - Pass Details

Date: 14 January 2018
Orbit: 764 x 766 km, 98.2° (Epoch: 15 July)

Event Time Altitude Azimuth Distance (km) Brightness Sun altitude
Rises 20:28:49 0° 182° (S) 3,228 6.6 -32.2°
Reaches altitude 10° 20:31:14 10° 189° (S) 2,300 5.8 -32.8°
Enters shadow 20:35:41 39° 250° (WSW) 1,128 4.2 -33.8°
